Location: Краснотурьинск
(59.7646°N, 60.1936°E)
Time: 04:28:10
(UTC+05:00)

ISS - Visible Passes

Search period start: 15 December 2025 00:00
Search period end: 25 December 2025 00:00
Orbit: 416 x 420 km, 51.6° (Epoch: 14 December)

Date Brightness Start Highest point End Pass type
(mag) Time Alt. Az. Time Alt. Az. Time Alt. Az.
15 Dec -0.7 08:11:42 10° S 08:13:29 14° SSE 08:15:17 10° SE visible
16 Dec -0.6 07:24:40 10° S 07:25:44 11° SSE 07:26:47 10° SE visible
17 Dec -1.1 08:11:21 10° SSW 08:13:44 18° SSE 08:16:08 10° ESE visible
18 Dec -1.0 07:23:44 10° SSW 07:25:53 16° SSE 07:28:02 10° ESE visible
18 Dec -1.3 08:59:16 10° SW 09:01:53 21° S 09:04:30 10° SE visible
19 Dec -1.0 06:36:51 12° S 06:38:01 14° SSE 06:39:46 10° SE visible
19 Dec -1.4 08:11:23 10° SW 08:13:58 21° S 08:16:34 10° SE visible
20 Dec -0.5 05:50:54 10° SE 05:50:54 10° SE 05:51:07 10° SE visible
20 Dec -1.4 07:23:49 12° SW 07:26:02 20° S 07:28:33 10° ESE visible
20 Dec -1.3 08:59:37 10° WSW 09:02:04 19° SSW 09:04:31 10° SE visible
21 Dec -1.5 06:37:45 18° S 06:38:06 18° SSE 06:40:29 10° ESE visible
21 Dec -1.5 08:11:33 10° SW 08:14:07 20° S 08:16:40 10° SE visible
22 Dec -0.7 05:51:35 13° SE 05:51:35 13° SE 05:52:16 10° ESE visible
22 Dec -1.7 07:24:31 15° SW 07:26:08 21° S 07:28:44 10° SE visible
22 Dec -1.1 09:00:09 10° WSW 09:02:06 15° SSW 09:04:02 10° SSE visible
23 Dec -1.7 06:38:17 20° S 06:38:17 20° S 06:40:43 10° SE visible
23 Dec -1.4 08:11:52 10° WSW 08:14:08 17° SSW 08:16:24 10° SSE visible
24 Dec -0.7 05:52:01 13° SE 05:52:01 13° SE 05:52:36 10° ESE visible
24 Dec -1.7 07:24:55 16° SW 07:26:07 19° S 07:28:35 10° SE visible
